Content
SEND FEEDBACK

Daily
Averages
Monthly
Summary
Canada

VANCOUVER - CITY HALL, BRITISH COLUMBIA


Home > North America > Canada > British Columbia
Elevation: 283 feet     Latitude: 49 17N     Longitude: 123 07W

WEATHER
 
SELECT A DAY
Number of Records: 170,124;   Date Range: 4/23/95 - 8/31/14
 
SHARE

PRINT THIS DATA

[ ← Previous Day ]
WEATHER ALMANAC - APRIL 7, 2014
[ Next Day → ]
[ °C ]   °F
Weather ElementAverageHighLow
Temperature52.5 °F60.4 °F (3:00 pm)46.9 °F (1:00 am)
Dewpoint47 °F51.3 °F (1:00 pm)43.9 °F (1:00 am)
Humidity81.7 %95 % (7:00 am)52 % (5:00 pm)
Barometer30.22 in30.30 in (1:00 am)30.10 in (7:00 pm)
Wind Speed1.7 mph2.3 mph (1:00 am)
Weather ElementAverage
Wind DirectionESE (108.5 °)

Weather ElementTotal
Precipitation0.18 in
Heating Degree Days11.4 (Base 65)
Growing Degree Days3.7 (Base 50)
Averaged from 27 records on April 7, 2014
WEATHER CONDITIONS BREAKOUT
WIND DIRECTION BREAKOUT
WEATHER BY HOUR - APRIL 7, 2014
[ °C ]   °F
Local TimeTemperatureDewpointHumidityBarometerVisibilityWind DirectionWind SpeedGust SpeedPrecipitationEventsConditions
1:00 AM46.9 °F43.9 °F89 %30.30 inNNE (30°)2.3 mph
2:00 AM46.9 °F45.0 °F93 %30.30 inNNE (30°)2.3 mph0.02 in
3:00 AM46.9 °F45.3 °F94 %30.30 inNNE (30°)2.3 mph0.02 in
4:00 AM47.1 °F45.3 °F93 %30.30 inNE (50°)1.2 mph0.01 in
5:00 AM47.0 °F46.0 °F92 %30.30 inNE (40°)2.3 mph
5:00 AM47.1 °F45.5 °F94 %30.30 inNE (40°)2.3 mph0.06 in
6:00 AM47.5 °F45.9 °F94 %30.29 inNNE (30°)2.3 mph0.03 in
7:00 AM47.8 °F46.4 °F95 %30.29 inNNE (30°)1.2 mph0.00 in
8:00 AM48.2 °F46.8 °F95 %30.29 inNE (50°)1.2 mph0.02 in
9:00 AM49.1 °F47.7 °F95 %30.29 inEast (90°)2.3 mph0.02 in
10:00 AM50.5 °F48.6 °F93 %30.27 inEast (90°)1.2 mph
11:00 AM52.0 °F49.0 °F84 %30.27 inENE (70°)2.3 mph
11:00 AM51.6 °F48.6 °F89 %30.27 inENE (70°)2.3 mph
12:00 PM52.0 °F48.9 °F89 %30.26 inSW (220°)1.2 mph
1:00 PM54.3 °F51.3 °F89 %30.24 inWSW (240°)1.2 mph
2:00 PM57.2 °F50.7 °F79 %30.22 inWSW (240°)1.2 mph
3:00 PM60.4 °F47.1 °F61 %30.20 inSSW (210°)1.2 mph
4:00 PM59.4 °F46.4 °F62 %30.17 inSSW (200°)1.2 mph
5:00 PM60.0 °F47.0 °F52 %30.14 inSouth (190°)1.2 mph
5:00 PM58.1 °F46.9 °F66 %30.14 inSouth (190°)1.2 mph
6:00 PM59.7 °F45.9 °F60 %30.13 inCalm
7:00 PM57.6 °F47.8 °F70 %30.10 inNorth (360°)1.2 mph
8:00 PM54.5 °F46.9 °F76 %30.10 inNorth (10°)2.3 mph
9:00 PM53.2 °F46.6 °F78 %30.11 inNorth (360°)1.2 mph
10:00 PM53.8 °F46.8 °F77 %30.12 inNNE (20°)2.3 mph
11:00 PM54.0 °F47.0 °F69 %30.12 inNNE (20°)2.3 mph
11:00 PM54.0 °F46.8 °F77 %30.12 inNNE (20°)2.3 mph
Hourly data recorded from CWWA, located miles away from Vancouver - City Hall, British Columbia







STORIES FROM OUR PARTNERS